RH
47 58 78 75 77 78 77 74 74 76 76 79 78 78 78 77 76 74 72 72 71 68 66 66 72 75 72 69 70 75 79 80 80 81 84 80 75 73 71 76 75 66 78
38 58 81 79 78 78 79 78 78 80 82 82 80 79 79 78 76 74 72 69 67 67 65 65 67 74 74 73 72 72 75 79 82 83 84 86 83 73 72 76 76 69 76
38 42 55 79 77 76 76 79 80 80 79 78 78 77 76 73 72 72 70 67 67 67 66 65 65 69 73 73 73 74 74 76 79 80 75 51 63 75 74 82 81 76 72
44 56 59 80 76 74 74 76 76 78 77 75 73 71 72 71 72 70 69 68 70 68 68 69 70 70 70 72 72 74 78 78 75 76 53 38 47 75 74 73 72 72 71
48 54 62 82 78 76 73 73 73 74 74 75 76 73 71 71 71 72 70 75 73 72 72 72 73 73 72 70 72 75 77 76 78 66 45 66 69 69 72 71 70 70 72
46 46 68 84 81 81 80 81 79 79 78 77 76 75 74 74 73 75 76 78 78 78 74 75 76 75 74 73 71 73 73 71 76 45 55 64 75 73 71 68 73 72 73
40 44 50 83 82 80 78 80 83 81 81 81 78 75 74 73 72 71 77 78 79 79 76 76 79 78 77 75 72 72 74 74 61 39 49 58 75 75 67 70 74 75 76
41 40 40 68 81 83 84 85 84 83 82 81 81 80 79 78 76 74 74 76 78 77 79 79 76 78 79 78 76 78 76 75 57 40 43 52 73 78 74 74 77 76 76
37 37 36 33 39 73 83 85 85 84 85 85 87 86 86 84 78 74 76 77 77 76 76 78 82 76 74 79 80 83 81 76 60 42 45 48 83 74 73 70 75 74 76
43 41 41 39 37 34 31 72 76 79 77 75 79 86 87 89 83 80 82 82 81 80 80 79 80 81 80 79 86 88 84 78 55 44 52 64 77 73 73 74 74 75 76
48 48 48 46 44 42 35 34 56 69 65 66 63 76 63 33 36 51 83 90 87 85 83 82 81 82 86 87 89 89 86 54 40 41 46 81 76 75 75 76 76 73 73
56 52 50 50 51 48 39 38 33 31 32 29 27 29 26 27 30 39 59 87 85 86 87 85 83 84 87 57 62 84 58 43 36 40 46 80 76 76 78 80 81 79 76
57 56 54 53 52 53 54 46 35 33 33 34 31 31 29 28 29 32 37 41 46 78 55 69 67 63 61 69 71 44 41 36 34 37 52 81 77 76 77 80 78 78 79
58 58 53 52 52 53 57 54 46 41 40 37 38 36 35 33 32 32 34 40 45 40 40 54 67 66 65 64 66 68 40 40 36 38 47 86 83 79 74 81 86 87 76
53 54 51 49 52 51 58 62 57 52 47 45 44 44 44 42 40 39 37 37 39 43 44 43 52 60 63 65 65 65 65 40 40 43 52 90 88 84 80 72 75 79 74
42 46 44 42 46 50 54 58 66 65 62 54 51 53 53 50 49 46 43 39 42 41 45 48 47 52 60 69 64 63 66 59 48 41 49 62 90 89 86 80 76 73 71
37 40 41 38 39 43 48 54 64 62 65 64 61 61 59 60 58 55 48 44 41 41 46 48 53 65 69 68 69 68 69 70 70 66 46 51 66 92 90 84 80 79 76
35 35 37 33 36 38 40 47 44 51 49 51 49 48 48 52 57 62 56 51 46 48 47 50 49 70 71 77 83 83 77 71 68 68 74 58 56 56 85 88 89 84 81
28 31 36 34 35 35 33 36 35 38 40 45 43 45 45 44 50 58 65 59 52 55 51 50 50 51 56 58 63 70 76 79 70 68 72 69 68 57 58 82 88 90 89
26 27 31 33 35 34 38 34 34 32 35 36 34 37 40 40 44 50 56 63 62 60 56 55 54 53 53 53 49 50 56 58 60 61 66 69 69 68 59 61 75 76 92
29 28 29 34 35 37 41 40 38 36 34 32 32 32 33 34 39 49 51 53 58 67 65 62 65 62 62 55 63 69 62 53 50 54 58 63 68 67 67 62 60 65 67
31 32 32 32 34 35 40 42 38 36 34 32 34 33 31 31 35 41 47 55 54 60 67 65 69 77 74 66 70 69 68 54 46 48 49 53 60 67 71 69 63 60 64
33 36 34 34 36 34 36 39 40 37 37 33 36 35 34 30 36 40 44 49 54 59 63 71 73 70 78 72 73 74 66 61 54 48 52 50 56 61 65 72 70 66 64
36 38 38 36 37 33 36 38 37 43 42 39 37 34 33 29 33 39 43 42 49 56 61 62 62 76 75 80 73 70 72 69 74 66 60 62 60 55 58 60 65 66 69
34 37 37 36 36 36 37 37 40 40 42 42 39 36 34 31 30 35 38 39 41 47 51 55 63 67 77 80 77 77 76 80 76 80 77 59 63 63 63 60 62 67 64
32 33 36 34 36 35 36 36 38 40 40 43 42 42 40 36 36 33 33 37 39 41 45 52 58 65 70 72 79 74 75 76 83 82 79 69 63 53 57 58 61 62 60
Wind_Speed
6 10 6 6 8 7 9 10 10 9 7 11 9 11 10 9 10 10 10 10 9 9 9 9 10 11 11 10 11 11 11 11 11 10 9 9 10 9 8 10 14 15 16
6 13 7 6 6 7 8 9 9 7 10 9 10 10 10 9 9 9 8 8 8 8 9 9 9 10 10 10 10 10 10 9 9 7 7 9 8 7 5 5 14 13 15
8 11 11 8 6 6 7 8 8 8 8 7 8 8 7 7 7 6 6 6 6 8 8 9 9 9 8 8 9 9 9 8 6 2 4 4 9 6 8 12 12 12 13
10 15 13 9 7 7 6 6 6 6 6 6 7 6 5 6 6 5 5 4 6 7 7 7 7 8 7 7 7 7 8 6 2 5 6 3 9 6 8 10 10 11 12
9 11 11 10 10 9 8 7 6 6 6 5 5 4 4 4 4 4 4 4 5 7 6 6 5 5 6 6 6 6 6 4 2 7 3 8 4 9 9 9 9 9 8
10 11 13 11 11 10 9 9 8 8 8 7 6 4 4 3 3 3 3 3 3 5 5 5 4 3 3 4 4 4 3 3 7 2 4 5 3 9 9 7 7 6 9
13 10 14 14 13 12 10 10 9 9 8 6 6 5 5 4 4 2 3 1 2 2 3 4 4 3 3 3 3 3 1 5 8 3 2 5 5 2 9 7 7 7 7
16 15 14 11 9 9 12 13 12 10 9 8 7 6 5 5 4 3 2 1 1 2 3 4 4 4 3 4 5 3 2 5 7 2 1 5 6 4 6 7 5 6 7
15 14 14 14 12 6 8 10 9 8 8 8 8 7 6 4 2 2 3 3 3 3 4 5 5 5 5 5 5 4 3 7 9 3 3 4 12 6 6 6 5 6 7
16 16 16 15 13 13 11 9 5 4 5 2 1 2 4 7 6 5 4 3 4 4 6 6 6 6 6 6 5 5 5 8 10 1 3 4 6 6 8 8 8 8 9
15 17 16 16 15 15 11 7 5 5 4 5 5 5 7 5 2 3 9 4 4 6 6 7 6 6 7 7 7 6 5 6 9 4 3 8 1 5 7 10 11 9 9
18 18 17 17 16 15 11 11 9 6 6 6 6 7 6 6 5 4 5 3 6 8 7 8 8 7 6 8 7 7 6 9 5 4 0 8 2 5 7 13 11 8 8
15 15 17 17 15 14 11 8 6 6 5 6 8 9 8 6 5 4 2 3 5 8 5 5 6 7 8 6 5 6 7 7 4 4 2 6 2 6 4 6 6 8 8
15 17 17 18 16 15 9 9 9 7 7 6 7 10 8 6 6 5 4 5 3 4 6 3 3 6 8 9 9 9 7 5 4 3 2 8 4 5 7 8 7 6 8
16 16 17 17 16 14 12 10 10 9 8 8 7 9 8 7 8 7 6 6 4 5 5 6 3 5 7 7 8 9 8 7 7 3 2 5 6 6 9 11 13 18 14
16 17 16 17 17 15 13 12 8 11 13 9 8 8 11 8 8 7 7 6 6 6 5 6 6 5 5 5 8 6 8 8 7 8 5 5 9 8 9 10 12 13 13
14 15 17 17 17 16 15 12 9 8 8 8 9 13 14 12 11 9 7 7 6 6 8 6 6 6 6 4 6 7 6 6 6 8 6 5 7 9 10 12 12 14 14
13 16 16 16 18 17 15 12 10 10 9 9 9 10 14 11 12 12 8 7 8 7 6 6 6 3 5 4 3 3 4 6 8 8 6 7 5 5 10 12 12 12 11
14 14 16 16 18 17 16 12 11 13 9 9 9 10 14 13 14 10 10 10 10 7 7 6 6 7 6 5 6 6 5 5 8 8 9 8 9 6 5 11 14 12 12
14 14 15 14 17 16 11 11 9 9 9 9 10 10 14 12 15 12 8 9 11 9 7 7 8 6 7 6 7 8 5 6 7 8 9 9 9 9 8 8 7 7 13
14 15 16 16 17 12 10 11 10 10 9 9 9 14 13 13 14 14 10 10 9 8 10 11 10 9 7 7 6 5 8 9 10 8 9 9 10 10 10 9 7 6 8
12 14 14 15 15 12 9 8 9 9 9 9 8 11 12 14 13 12 13 12 12 8 11 10 8 7 7 7 7 7 5 6 8 9 8 8 11 8 9 10 10 11 8
12 12 13 13 14 12 13 9 8 8 7 7 9 9 11 14 12 11 12 11 12 11 8 10 11 10 7 7 7 6 4 4 4 4 7 7 9 9 7 9 10 10 10
10 11 12 13 14 13 14 11 14 9 10 10 10 10 12 14 13 12 11 12 11 9 12 11 9 10 10 8 7 6 10 9 5 5 4 4 6 7 8 7 6 7 7
9 10 11 12 13 14 13 13 11 12 10 10 10 15 14 13 14 13 12 12 11 9 10 12 14 11 9 11 9 8 8 8 9 8 9 7 5 6 7 8 8 8 9
8 10 10 11 12 12 12 13 14 15 14 12 12 12 10 10 10 13 14 12 12 12 12 11 12 14 13 12 11 11 9 7 6 7 9 10 10 8 7 7 7 9 10
Wind_Direction
110 109 82 114 112 108 101 97 92 78 86 90 88 88 95 94 90 87 81 77 74 77 79 79 74 84 88 78 73 69 61 66 75 74 72 91 97 102 100 115 110 96 97
93 95 81 91 106 100 103 100 92 79 69 83 93 96 89 87 91 81 78 81 87 86 81 83 81 76 82 81 76 73 69 65 56 56 94 85 83 108 73 75 89 103 101
81 120 93 63 75 82 87 104 97 86 81 78 74 76 79 79 78 79 80 81 89 86 87 84 85 82 79 85 84 80 77 65 52 6 258 158 107 110 87 86 104 108 105
54 63 62 56 62 73 78 81 90 97 92 91 86 79 76 78 82 82 87 87 102 98 90 85 87 93 93 95 91 81 74 69 45 284 270 113 134 137 124 116 112 115 114
76 74 66 57 59 62 64 68 64 72 71 63 69 67 68 69 70 65 81 74 96 110 107 104 95 94 103 106 108 99 80 66 281 273 74 36 332 151 141 128 129 128 142
79 81 64 42 43 46 53 58 57 58 62 55 48 39 38 32 32 27 15 59 122 124 127 127 125 113 107 110 113 107 85 341 297 150 100 71 9 143 143 162 127 123 123
53 72 72 55 38 39 42 44 43 43 44 44 42 34 23 17 15 29 25 51 146 171 160 157 151 156 164 176 161 148 52 319 295 141 109 94 47 35 153 138 139 154 141
33 26 20 59 52 49 46 31 27 33 35 38 41 39 27 16 4 6 0 9 259 246 243 228 188 191 195 220 208 186 264 297 270 187 171 113 81 3 166 159 161 161 146
33 30 18 12 6 82 77 48 25 33 35 33 28 22 15 360 344 324 312 300 285 278 262 254 242 211 221 225 221 198 248 293 297 131 211 174 137 234 215 182 184 178 168
31 22 12 6 3 359 352 70 3 28 16 15 45 19 302 265 229 199 245 242 287 278 275 265 249 236 232 233 218 223 244 275 277 174 224 96 118 206 228 211 202 204 194
22 18 8 3 358 350 341 355 316 163 249 247 236 211 261 274 257 184 85 56 329 294 269 260 255 240 230 237 234 228 244 250 243 239 224 119 150 256 255 234 207 213 194
16 12 9 3 356 351 343 346 335 347 340 343 346 349 332 344 359 315 281 212 245 249 268 259 244 241 223 252 201 202 239 243 259 244 201 127 180 257 270 217 198 205 193
17 14 10 5 358 356 346 332 340 346 346 345 357 352 339 319 336 301 302 230 256 199 246 214 234 232 246 258 302 205 221 249 262 252 131 131 205 236 194 144 161 185 191
20 15 10 8 3 2 349 354 343 341 349 351 349 352 345 337 331 319 318 325 283 277 295 231 265 252 250 253 259 292 236 223 242 289 187 152 200 258 197 168 141 267 224
25 19 14 11 8 5 7 1 353 359 356 343 358 6 353 340 339 338 326 321 314 309 289 289 253 277 266 262 246 254 285 239 226 227 299 176 203 244 237 201 193 195 210
22 21 14 16 11 9 9 12 7 1 356 3 7 15 6 354 346 333 321 316 319 310 306 295 295 273 274 282 280 246 246 271 281 223 207 198 200 236 257 245 214 207 207
24 18 16 15 12 12 10 5 22 14 12 8 3 10 2 7 350 337 328 321 324 330 315 293 295 339 318 287 268 284 282 270 267 285 250 228 186 207 227 248 249 230 217
30 25 18 16 14 14 13 4 11 9 9 14 15 11 7 7 357 339 332 327 333 318 307 300 293 287 275 275 261 271 286 292 272 274 279 279 216 224 206 221 236 248 242
28 26 23 20 14 11 9 8 8 2 17 5 10 6 2 360 357 353 339 334 334 314 309 303 298 288 284 263 244 233 236 239 259 261 263 257 265 226 222 199 213 224 227
28 27 24 19 15 9 7 5 2 1 6 351 4 358 356 355 349 345 343 336 329 322 313 308 298 288 286 289 292 297 267 239 240 247 247 248 242 243 233 242 195 214 226
29 23 18 16 12 13 6 0 357 352 346 346 357 348 351 351 350 341 340 334 330 329 321 316 308 297 288 286 282 283 267 256 250 238 230 241 240 233 230 227 227 209 206
24 18 15 13 9 9 3 353 346 334 336 331 346 335 342 342 341 338 337 329 328 322 315 304 297 306 303 300 294 292 283 266 248 226 242 232 245 238 230 230 237 220 226
16 11 6 4 1 0 356 345 342 330 329 333 334 327 332 328 328 327 326 324 321 319 308 307 304 288 283 284 274 268 284 240 305 245 216 237 236 251 225 222 230 234 227
9 1 358 355 353 349 349 344 342 331 328 328 322 318 321 320 316 319 315 314 313 310 309 305 290 307 285 267 271 263 263 281 286 293 188 243 266 265 258 248 235 233 232
358 351 347 343 343 340 339 335 331 324 317 315 314 315 315 311 315 312 309 308 306 306 300 297 300 284 293 286 256 254 259 257 251 257 267 263 215 208 227 243 241 245 241
347 341 337 333 331 328 325 321 315 311 309 306 304 302 302 309 309 306 304 304 301 297 296 298 299 295 295 278 288 265 245 243 231 233 248 255 264 264 212 221 226 220 224